Location: Haliburton Scout Reserve
(45.0900°N, 78.3200°W)
Time: 18:26:53
(UTC-04:00)

STRAND 1 - Pass Details

Date: 05 April 2023
Orbit: 767 x 779 km, 98.4° (Epoch: 06 June)

Event Time Altitude Azimuth Distance (km) Brightness Sun altitude
Rises 05:12:40 0° 104° (ESE) 3,246 ? -16.6°
Reaches altitude 10° 05:16:54 10° 70° (ENE) 2,321 ? -15.9°
Maximum altitude 05:18:12 11° 55° (NE) 2,256 ? -15.7°
Drops below altitude 10° 05:19:30 10° 40° (NE) 2,323 ? -15.5°
Sets 05:23:45 0° 6° (N) 3,254 ? -14.8°
